Back to catalog

CZ-6A DEB

AliveSSO
NORAD 54982·DEBRIS·🇨🇳 China

Launched Nov 11, 2022 from Taiyuan Satellite Launch Center

Loading…

Next Passes (next 24 hours)

TLE

FreshSource: Space-Track

Epoch: Sep 13, 2026, 00:41 UTC

1 54982U 22151TX  26256.02851865  .00004827  00000-0  11282-2 0  9992
2 54982  98.5796 287.5839 0054896 105.4548 255.2720 14.54215640200833

Track CZ-6A DEB in real time with AllMySat

Download on the App Store